Location: Kermapucano
(48.0667°N, 3.3000°W)
Time: 19:00:44
(UTC+00:00)

Cosmos 2228 Rocket - Pass Details

Date: 29 November 2020
Orbit: 618 x 652 km, 82.5° (Epoch: 27 January)

Event Time Altitude Azimuth Distance (km) Brightness Sun altitude
Exits shadow 05:43:22 - 353° (N) 2,512 6.0 -18.8°
Reaches altitude 10° 05:44:37 10° 354° (N) 2,009 5.5 -18.6°
Maximum altitude 05:49:03 72° 79° (E) 659 3.3 -17.9°
Drops below altitude 10° 05:53:26 10° 164° (SSE) 1,981 6.0 -17.2°
Sets 05:55:39 0° 167° (SSE) 2,880 6.9 -16.8°
